Regional Weather Roundup
Issued by NWS Little Rock, AR

Home | Current Version | Previous Version | Text Only | Print | Product List | Glossary On
Versions: 1 2 3 4 5 6 7 8 9 10 11 12 13 14 15 16 17 18 19 20 21 22 23 24 25 26 27 28 29 30 31 32 33 34 35 36 37 38 39 40 41 42 43 44 45 46 47 48 49 50
000
ASUS44 KLZK 232305
RWRLZK

WEATHER ROUNDUP FOR ARKANSAS
NATIONAL WEATHER SERVICE LITTLE ROCK AR
600 PM CDT TUE SEP 23 2014

NOTE: "FAIR" INDICATES FEW OR NO CLOUDS BELOW 12,000 FEET WITH NO
SIGNIFICANT WEATHER AND/OR OBSTRUCTIONS TO VISIBILITY.

ARZ001-003-010-029-240000-
NORTHWEST ARKANSAS

CITY           SKY/WX    TMP DP  RH WIND       PRES   REMARKS
FAYETTEVILLE   SUNNY     73  49  42 S8        30.17S
FORT SMITH     SUNNY     76  48  37 E5        30.14S
HARRISON       MOSUNNY   72  49  44 E5        30.19F
BENTONVILLE    SUNNY     75  46  35 SE8       30.17F
ROGERS         SUNNY     74  46  36 SE5       30.18S
SILOAM SPGS    SUNNY     75  48  38 SE6       30.17S
HIGHFILL       SUNNY     74  49  41 S6        30.16F
SPRINGDALE     MOSUNNY   75  50  41 S8        30.18F
$$

ARZ004-005-016-240000-
NORTH CENTRAL ARKANSAS

CITY           SKY/WX    TMP DP  RH WIND       PRES   REMARKS
BATESVILLE     MOSUNNY   77  41  27 E9        30.17S
FLIPPIN        MOSUNNY   73  45  35 E5        30.18F
MTN HOME       MOSUNNY   73  47  39 E8        30.18S
$$

ARZ040-041-240000-
WEST CENTRAL ARKANSAS

CITY           SKY/WX    TMP DP  RH WIND       PRES   REMARKS
MENA           SUNNY     77  50  38 CALM      30.16S
MOUNT IDA      SUNNY     73  54  51 CALM      30.13F
$$

ARZ009-017-025-026-028-240000-
NORTHEAST ARKANSAS

CITY           SKY/WX    TMP DP  RH WIND       PRES   REMARKS
CORNING          N/A     73  50  43 NE8       30.19S
JONESBORO      SUNNY     76  44  32 NE10      30.17S
NEWPORT        SUNNY     76  41  28 NE9       30.18S
WALNUT RIDGE   MOSUNNY   70  50  49 NE6       30.18S
BLYTHEVILLE    SUNNY     77  50  38 NE6       30.18S
$$

ARZ022-023-033-042-044-240000-
CENTRAL ARKANSAS

CITY           SKY/WX    TMP DP  RH WIND       PRES   REMARKS
LITTLE ROCK    MOSUNNY   75  43  31 NE8       30.15S
N LITTLE ROCK  MOSUNNY   77  48  35 E8        30.15S
JACKSONVILLE   SUNNY     79  45  29 E8        30.15S
SEARCY           N/A    N/A N/A N/A MISG        N/A
HOT SPRINGS    SUNNY     78  43  28 E8        30.14S
RUSSELLVILLE   SUNNY     77  48  35 VRB3      30.15S
CLINTON        FAIR      79  43  27 E5        30.16S
$$

ARZ036-240000-
EAST ARKANSAS

CITY           SKY/WX    TMP DP  RH WIND       PRES   REMARKS
WEST MEMPHIS   SUNNY     76  44  32 E12       30.14S
$$

ARZ050-053-066-070-073-240000-
SOUTHWEST ARKANSAS

CITY           SKY/WX    TMP DP  RH WIND       PRES   REMARKS
ARKADELPHIA    FAIR      77  52  41 E5        30.14S
CAMDEN         MOSUNNY   81  46  30 NE5       30.12S
TEXARKANA      SUNNY     76  51  41 NE7       30.12S
EL DORADO      MOSUNNY   79  50  36 NE5       30.12S
DE QUEEN       MOSUNNY   77  54  44 E6        30.12S
$$

ARZ056-057-069-240000-
SOUTHEAST ARKANSAS

CITY           SKY/WX    TMP DP  RH WIND       PRES   REMARKS
PINE BLUFF     SUNNY     78  42  27 NE8       30.14R
STUTTGART      SUNNY     77  45  31 NE7       30.15S
MONTICELLO     SUNNY     80  44  27 NE3       30.12S

$$





USA.gov is the U.S. government's official web portal to all federal, state and local government web resources and services.